DW9104 Dudley UK current weather conditions

sailwx.info

Wind from 105

Air temperature 13.9° C
Dewpoint 9.5° C

Last reported at 2020-May-26 23:39 UTC.
Time now 2020-May-27 00:23 UTC

Location: N 52°32' W 002°06'.
View on Google Maps.

See reports from other nearby stations

  
Tides and Currents Weather Stations Pressure Air Temp Water Temp Dewpoint Dewpoint Depression Visibility Wind Speed Wind Dir Waves Ship Positions
date/time (UTC)wind fromknots sea level pressurealtimeterstation pressurevisibilityair tempwater tempwave heightnotes
2020-May-27 00:09 062 0 gusting 2 13.3
2020-May-27 00:04 046 13.3
2020-May-26 23:39 105 13.9
2020-May-26 23:34 105 13.9
2020-May-26 23:09 107 14.4
2020-May-26 23:04 122 0 gusting 2 14.4
2020-May-26 22:39 076 14.4
2020-May-26 22:34 086 14.4
2020-May-26 22:09 059 1 gusting 5 15.0
2020-May-26 22:04 073 15.0
2020-May-26 21:39 048 0 gusting 4 15.6
2020-May-26 21:34 014 16.1
2020-May-26 21:09 040 16.7
2020-May-26 21:04 098 0 gusting 2 16.7
2020-May-26 20:39 047 0 gusting 2 17.2
2020-May-26 20:34 091 17.2
2020-May-26 20:09 094 0 gusting 1 17.8
2020-May-26 20:04 105 0 gusting 2 18.3
2020-May-26 19:39 061 0 gusting 4 19.4
2020-May-26 19:34 090 20.0
2020-May-26 19:09 073 1 gusting 4 20.6
2020-May-26 19:04 089 0 gusting 4 20.6
2020-May-26 18:39 046 20.6
2020-May-26 18:34 037 20.6
2020-May-26 18:09 020 0 gusting 2 20.6
2020-May-26 18:04 059 1 gusting 4 20.6
2020-May-26 17:39 047 21.1
2020-May-26 17:09 025 1 gusting 5 22.8
2020-May-26 17:04 062 0 gusting 6 22.8
2020-May-26 16:39 017 0 gusting 2 22.2
2020-May-26 16:34 026 1 gusting 4 22.2
2020-May-26 16:09 041 1 gusting 4 22.8
2020-May-26 16:04 034 22.2
2020-May-26 15:39 353 0 gusting 6 22.2
2020-May-26 15:34 061 22.2
2020-May-26 15:09 029 1 gusting 5 21.7
2020-May-26 15:04 008 1 gusting 5 21.7
2020-May-26 14:39 034 0 gusting 2 21.7
2020-May-26 14:34 066 0 gusting 5 21.1
2020-May-26 14:09 034 22.2
2020-May-26 14:04 045 21.7
2020-May-26 13:39 030 0 gusting 2 21.7
2020-May-26 13:34 034 0 gusting 5 21.7
2020-May-26 13:09 020 1 gusting 4 21.7
2020-May-26 13:04 007 0 gusting 5 21.1
2020-May-26 12:39 040 0 gusting 4 21.7
2020-May-26 12:34 016 0 gusting 2 22.2
2020-May-26 12:09 050 1 gusting 4 20.6
2020-May-26 12:04 036 0 gusting 2 20.6
2020-May-26 11:39 152 0 gusting 1 20.0
2020-May-26 11:34 042 0 gusting 4 20.0
2020-May-26 11:09 20.6
2020-May-26 11:04 238 20.6
2020-May-26 10:39 021 0 gusting 6 20.0
2020-May-26 10:34 043 0 gusting 4 20.0
2020-May-26 10:09 017 0 gusting 2 18.9
2020-May-26 10:04 020 0 gusting 4 18.9
2020-May-26 09:39 033 0 gusting 2 18.9
2020-May-26 09:34 006 1 gusting 6 19.4
2020-May-26 09:09 094 18.3
2020-May-26 09:04 021 0 gusting 2 17.8
2020-May-26 08:39 053 17.8
2020-May-26 08:34 034 17.2
2020-May-26 08:09 012 16.7
2020-May-26 08:04 008 0 gusting 4 16.7
2020-May-26 07:39 018 16.7
2020-May-26 07:34 026 16.7
2020-May-26 07:09 028 1 gusting 2 15.6
2020-May-26 07:04 027 2 gusting 6 15.0
2020-May-26 06:39 009 14.4
2020-May-26 06:34 039 13.9
2020-May-26 06:09 046 13.3
2020-May-26 06:04 046 13.3
2020-May-26 05:39 016 13.3
2020-May-26 05:34 016 12.8
2020-May-26 05:09 011 12.8
2020-May-26 05:04 010 12.2
2020-May-26 04:39 011 12.2
2020-May-26 04:34 010 12.2